DW3733 Weather Reports


time (UTC)temp
C
wind
direction
speed
KPH
gust
KPH
rain 1hr
cm
rain 24hr
cm
rain mn
cm
humidity
%
barometer
mb
20260906072808 29 213 3.2 4.8 0.00 0.00 0.00 48 1019.7
20260906072308 28 6 1.6 4.8 0.00 0.00 0.00 50 1019.7
20260906071807 28 220 1.6 3.2 0.00 0.00 0.00 50 1019.7
20260906071307 28 170 1.6 9.7 0.00 0.00 0.00 50 1019.7
20260906070806 28 221 3.2 4.8 0.00 0.00 0.00 50 1019.7
20260906070307 28 220 1.6 4.8 0.00 0.00 0.00 48 1019.8
20260906065806 27 225 1.6 1.6 0.00 0.00 0.00 45 1019.6
20260906065306 27 185 0.0 3.2 0.00 0.00 0.00 46 1019.8
20260906064806 27 202 1.6 3.2 0.00 0.00 0.00 46 1019.5
20260906064306 27 180 0.0 1.6 0.00 0.00 0.00 47 1019.6
20260906063307 26 97 1.6 1.6 0.00 0.00 0.00 46 1019.6
20260906062806 26 132 1.6 1.6 0.00 0.00 0.00 51 1019.6
20260906062307 26 135 0.0 1.6 0.00 0.00 0.00 52 1019.6
20260906061806 25 135 1.6 1.6 0.00 0.00 0.00 53 1019.7
20260906061306 25 135 1.6 3.2 0.00 0.00 0.00 54 1019.6
20260906060806 23 90 0.0 0.0 0.00 0.00 0.00 57 1019.6
20260906060306 23 90 0.0 0.0 0.00 0.00 0.00 57 1019.5
20260906055807 23 315 0.0 0.0 0.00 0.00 0.00 59 1019.6
20260906055307 23 90 0.0 0.0 0.00 0.00 0.00 61 1019.7
20260906053306 20 94 0.0 0.0 0.00 0.00 0.00 70 1019.6
20260906052807 20 96 0.0 0.0 0.00 0.00 0.00 70 1019.5
20260906051806 19 90 0.0 1.6 0.00 0.00 0.00 70 1019.5
20260906051306 19 90 1.6 3.2 0.00 0.00 0.00 70 1019.5
20260906050806 19 90 1.6 3.2 0.00 0.00 0.00 70 1019.4
20260906050306 18 126 1.6 3.2 0.00 0.00 0.00 70 1019.5
20260906045807 18 90 1.6 3.2 0.00 0.00 0.00 70 1019.4
20260906045307 18 95 0.0 1.6 0.00 0.00 0.00 70 1019.3
20260906044806 18 90 1.6 4.8 0.00 0.00 0.00 70 1019.4
20260906043806 18 90 1.6 1.6 0.00 0.00 0.00 70 1019.4
20260906043306 18 176 1.6 1.6 0.00 0.00 0.00 70 1019.4
20260906042307 18 90 1.6 1.6 0.00 0.00 0.00 70 1019.4
20260906041807 18 90 1.6 1.6 0.00 0.00 0.00 70 1019.4
20260906041307 18 355 0.0 3.2 0.00 0.00 0.00 69 1019.3
20260906040807 19 135 0.0 1.6 0.00 0.00 0.00 68 1019.3
20260906040307 19 135 0.0 1.6 0.00 0.00 0.00 68 1019.3
20260906035306 19 135 1.6 1.6 0.00 0.00 0.00 68 1019.2
20260906034806 19 90 1.6 1.6 0.00 0.00 0.00 67 1019.2
20260906033807 19 90 1.6 1.6 0.00 0.00 0.00 68 1019.2
20260906033307 19 315 0.0 1.6 0.00 0.00 0.00 68 1019.1
20260906032807 19 135 0.0 1.6 0.00 0.00 0.00 67 1019.2
20260906032306 19 131 1.6 1.6 0.00 0.00 0.00 68 1019.1
20260906031806 19 135 0.0 0.0 0.00 0.00 0.00 68 1019.1
20260906030306 19 141 0.0 4.8 0.00 0.00 0.00 67 1019.1
20260906025307 20 90 1.6 3.2 0.00 0.00 0.00 67 1019.1
20260906024807 20 134 1.6 3.2 0.00 0.00 0.00 68 1019.1
20260906024307 20 135 1.6 1.6 0.00 0.00 0.00 69 1019.1
20260906023307 20 90 1.6 3.2 0.00 0.00 0.00 70 1019.1
20260906022807 20 90 1.6 4.8 0.00 0.00 0.00 70 1019.1
20260906022307 20 90 1.6 3.2 0.00 0.00 0.00 70 1019.2
20260906021806 20 90 1.6 3.2 0.00 0.00 0.00 69 1019.1
20260906021306 20 90 1.6 4.8 0.00 0.00 0.00 68 1019.1
20260906020307 20 90 1.6 3.2 0.00 0.00 0.00 67 1019.1
20260906015806 20 315 0.0 3.2 0.00 0.00 0.00 68 1019.0
20260906015306 20 90 3.2 4.8 0.00 0.00 0.00 68 1019.1
20260906014806 20 193 1.6 1.6 0.00 0.00 0.00 68 1019.1
20260906014306 20 90 0.0 3.2 0.00 0.00 0.00 68 1019.1
20260906013807 20 90 1.6 4.8 0.00 0.00 0.00 68 1019.2
20260906012307 20 90 1.6 1.6 0.00 0.00 0.00 68 1019.1
20260906011806 20 135 1.6 3.2 0.00 0.00 0.00 69 1019.2
20260906011306 20 6 1.6 3.2 0.00 0.00 0.00 69 1019.2
20260906010807 20 270 1.6 3.2 0.00 0.00 0.00 69 1019.2
20260906010307 20 94 1.6 3.2 0.00 0.00 0.00 69 1019.3
20260906005806 20 90 1.6 3.2 0.00 0.00 0.00 68 1019.2
20260906005306 20 315 1.6 3.2 0.00 0.00 0.00 68 1019.3
20260906004806 20 270 1.6 3.2 0.00 0.00 0.00 67 1019.3
20260906004306 20 90 1.6 3.2 0.00 0.00 0.00 67 1019.3
20260906003806 20 90 1.6 1.6 0.00 0.00 0.00 66 1019.3
20260906003306 20 101 1.6 1.6 0.00 0.00 0.00 66 1019.2
20260906002806 21 93 1.6 4.8 0.00 0.00 0.00 65 1019.3
20260906002307 21 90 3.2 4.8 0.00 0.00 0.00 64 1019.2
20260906001807 21 3 1.6 3.2 0.00 0.00 0.00 61 1019.2
20260906001306 21 0 0.0 3.2 0.00 0.00 0.00 61 1019.3
20260906000806 21 231 0.0 0.0 0.00 0.00 0.00 61 1019.2
20260905235807 22 5 0.0 3.2 0.00 0.00 0.00 61 1019.3
20260905235307 22 95 0.0 1.6 0.00 0.00 0.00 62 1019.4
20260905234807 21 320 1.6 1.6 0.00 0.00 0.00 62 1019.4
20260905234307 22 0 3.2 4.8 0.00 0.00 0.00 61 1019.4
20260905233806 22 328 1.6 4.8 0.00 0.00 0.00 61 1019.4
20260905233306 22 90 1.6 3.2 0.00 0.00 0.00 61 1019.5
20260905232806 22 220 0.0 3.2 0.00 0.00 0.00 60 1019.4
20260905232306 22 90 1.6 3.2 0.00 0.00 0.00 59 1019.4
20260905231806 23 90 0.0 0.0 0.00 0.00 0.00 59 1019.3
20260905231306 23 315 0.0 4.8 0.00 0.00 0.00 58 1019.4
20260905230806 23 90 1.6 4.8 0.00 0.00 0.00 56 1019.4
20260905230306 25 90 0.0 1.6 0.00 0.00 0.00 55 1019.4
20260905225817 25 225 3.2 4.8 0.00 0.00 0.00 55 1019.4
20260905225318 25 204 1.6 3.2 0.00 0.00 0.00 55 1019.5
20260905224317 25 225 3.2 4.8 0.00 0.00 0.00 56 1019.5
20260905222817 25 224 1.6 4.8 0.00 0.00 0.00 58 1019.4
20260905222318 25 6 0.0 4.8 0.00 0.00 0.00 59 1019.6
20260905221818 25 141 0.0 4.8 0.00 0.00 0.00 60 1019.5
20260905220826 25 181 3.2 4.8 0.00 0.00 0.00 60 1019.5
20260905220318 25 225 0.0 3.2 0.00 0.00 0.00 60 1019.5
20260905215817 25 223 1.6 3.2 0.00 0.00 0.00 60 1019.4
20260905215317 25 180 1.6 8.0 0.00 0.00 0.00 61 1019.3
20260905214818 25 184 3.2 4.8 0.00 0.00 0.00 61 1019.4
20260905214318 25 137 4.8 4.8 0.00 0.00 0.00 61 1019.5
20260905213819 25 180 1.6 8.0 0.00 0.00 0.00 61 1019.6
20260905213318 25 227 1.6 3.2 0.00 0.00 0.00 62 1019.4
20260905212818 25 180 1.6 3.2 0.00 0.00 0.00 62 1019.6
20260905212318 25 221 1.6 1.6 0.00 0.00 0.00 62 1019.5
20260905211318 25 216 1.6 3.2 0.00 0.00 0.00 61 1019.5
20260905210818 25 156 1.6 3.2 0.00 0.00 0.00 61 1019.4
20260905210317 26 182 0.0 3.2 0.00 0.00 0.00 61 1019.5
20260905205817 26 218 1.6 3.2 0.00 0.00 0.00 61 1019.4
20260905204817 25 225 1.6 1.6 0.00 0.00 0.00 61 1019.3
20260905204317 25 180 1.6 1.6 0.00 0.00 0.00 61 1019.4
20260905202817 25 219 1.6 1.6 0.00 0.00 0.00 64 1019.2
20260905202318 25 225 1.6 1.6 0.00 0.00 0.00 63 1019.3
20260905201818 25 184 0.0 1.6 0.00 0.00 0.00 63 1019.4
20260905200818 25 177 1.6 1.6 0.00 0.00 0.00 64 1019.4
20260905200318 26 90 0.0 1.6 0.00 0.00 0.00 64 1019.4
20260905195817 26 90 0.0 3.2 0.00 0.00 0.00 65 1019.4
20260905195318 26 142 1.6 3.2 0.00 0.00 0.00 65 1019.4
20260905194317 26 177 1.6 4.8 0.00 0.00 0.00 64 1019.5
20260905193817 26 261 1.6 3.2 0.00 0.00 0.00 63 1019.4
20260905193317 26 265 1.6 3.2 0.00 0.00 0.00 64 1019.4
20260905192818 26 185 0.0 4.8 0.00 0.00 0.00 64 1019.5
20260905192317 26 136 3.2 4.8 0.00 0.00 0.00 65 1019.3
20260905191818 26 8 0.0 3.2 0.00 0.00 0.00 63 1019.5
20260905191318 26 8 1.6 3.2 0.00 0.00 0.00 59 1019.5
20260905190818 27 135 1.6 3.2 0.00 0.00 0.00 60 1019.4
20260905190317 27 135 1.6 3.2 0.00 0.00 0.00 60 1019.4
20260905185818 27 225 3.2 4.8 0.00 0.00 0.00 60 1019.2
20260905185318 27 205 4.8 4.8 0.00 0.00 0.00 59 1019.2
20260905184818 27 229 1.6 4.8 0.00 0.00 0.00 57 1019.0
20260905184318 27 225 0.0 1.6 0.00 0.00 0.00 56 1019.0
20260905183817 27 220 1.6 1.6 0.00 0.00 0.00 55 1018.9
20260905183318 27 225 0.0 1.6 0.00 0.00 0.00 55 1018.9
20260905182818 27 225 1.6 1.6 0.00 0.00 0.00 54 1018.8
20260905182318 27 135 0.0 3.2 0.00 0.00 0.00 53 1018.8
20260905181818 28 94 0.0 3.2 0.00 0.00 0.00 51 1018.7
20260905181317 28 141 0.0 1.6 0.00 0.00 0.00 50 1018.8
20260905180819 28 95 0.0 3.2 0.00 0.00 0.00 48 1018.7
20260905180317 28 180 1.6 3.2 0.00 0.00 0.00 46 1018.6
20260905175818 28 229 1.6 4.8 0.00 0.00 0.00 46 1018.5
20260905175317 29 225 1.6 4.8 0.00 0.00 0.00 46 1018.5
20260905174817 29 180 3.2 4.8 0.00 0.00 0.00 46 1018.2
20260905174318 29 225 1.6 4.8 0.00 0.00 0.00 47 1018.1
20260905173818 29 222 3.2 4.8 0.00 0.05 0.00 47 1018.1
20260905173318 29 225 3.2 9.7 0.00 0.05 0.00 47 1018.0
20260905172317 30 222 4.8 8.0 0.00 0.05 0.00 46 1018.0
20260905171818 30 225 3.2 9.7 0.00 0.05 0.00 46 1018.0
20260905171317 30 175 3.2 9.7 0.00 0.05 0.00 45 1017.9
20260905170817 31 204 3.2 4.8 0.00 0.05 0.00 44 1017.9
20260905165817 31 143 3.2 4.8 0.00 0.05 0.00 43 1017.7
20260905164818 31 183 4.8 9.7 0.00 0.05 0.00 40 1017.7
20260905164317 31 180 4.8 8.0 0.00 0.05 0.00 37 1017.8
20260905163817 32 180 4.8 9.7 0.00 0.05 0.00 37 1017.7
20260905163317 32 225 3.2 8.0 0.00 0.05 0.00 37 1017.7
20260905162818 32 185 3.2 9.7 0.00 0.05 0.00 36 1017.7
20260905162318 32 180 6.4 9.7 0.00 0.05 0.00 35 1017.6
20260905161817 32 184 4.8 9.7 0.00 0.05 0.00 35 1017.7
20260905161318 32 184 4.8 9.7 0.00 0.05 0.00 35 1017.6
20260905160817 32 184 4.8 9.7 0.00 0.05 0.00 36 1017.5
20260905160317 32 353 6.4 9.7 0.00 0.05 0.00 35 1017.6
20260905155817 33 180 4.8 9.7 0.00 0.05 0.00 34 1017.5
20260905155318 33 175 4.8 11.3 0.00 0.05 0.00 34 1017.5
20260905154818 33 225 4.8 9.7 0.00 0.05 0.00 32 1017.5
20260905154318 33 270 3.2 4.8 0.00 0.05 0.00 31 1017.4
20260905153819 33 180 4.8 4.8 0.00 0.05 0.00 30 1017.6
20260905153317 33 225 1.6 4.8 0.00 0.05 0.00 30 1017.5
20260905152817 33 218 3.2 4.8 0.00 0.05 0.00 30 1017.6
20260905152317 33 225 3.2 9.7 0.00 0.05 0.00 30 1017.5
20260905151817 33 199 4.8 8.0 0.00 0.05 0.00 30 1017.5
20260905150817 33 218 4.8 8.0 0.00 0.05 0.00 32 1017.5
20260905145818 33 223 4.8 9.7 0.00 0.05 0.00 33 1017.6
20260905145318 33 355 4.8 9.7 0.00 0.05 0.00 34 1017.6
20260905144818 34 312 4.8 12.9 0.00 0.05 0.00 33 1017.5
20260905144318 34 180 8.0 14.5 0.00 0.05 0.00 33 1017.6
20260905143818 35 97 9.7 14.5 0.00 0.05 0.00 33 1017.5
20260905142818 35 306 4.8 12.9 0.00 0.05 0.00 31 1017.5
20260905142317 35 233 8.0 12.9 0.00 0.05 0.00 31 1017.4
20260905141817 35 184 4.8 14.5 0.00 0.05 0.00 31 1017.4
20260905141318 35 139 3.2 16.1 0.00 0.05 0.00 31 1017.4
20260905140817 35 183 6.4 12.9 0.00 0.05 0.00 30 1017.3
20260905140318 35 315 4.8 11.3 0.00 0.05 0.00 30 1017.3
20260905135818 36 355 8.0 11.3 0.00 0.05 0.00 29 1017.2
20260905135317 36 270 4.8 9.7 0.00 0.05 0.00 30 1017.3
20260905134817 36 86 6.4 9.7 0.00 0.05 0.00 29 1017.3
20260905134317 36 354 6.4 9.7 0.00 0.05 0.00 28 1017.3
20260905133317 36 180 1.6 4.8 0.00 0.05 0.00 20 1017.4
20260905132317 36 0 1.6 3.2 0.00 0.05 0.00 21 1017.4
20260905131818 36 84 1.6 4.8 0.00 0.05 0.00 20 1017.4
20260905131318 36 355 4.8 9.7 0.00 0.05 0.00 20 1017.4
20260905130817 36 358 1.6 4.8 0.00 0.05 0.00 20 1017.5
20260905130318 36 320 4.8 9.7 0.00 0.05 0.00 12 1017.5
20260905125818 36 84 1.6 4.8 0.00 0.05 0.00 12 1017.6
20260905125318 36 315 1.6 1.6 0.00 0.05 0.00 11 1017.7
20260905124818 36 135 1.6 4.8 0.00 0.05 0.00 12 1017.6
20260905123817 36 135 4.8 9.7 0.00 0.05 0.00 12 1017.8
20260905123318 36 318 6.4 9.7 0.00 0.05 0.00 12 1017.6
20260905122817 36 315 3.2 4.8 0.00 0.05 0.00 13 1017.7
20260905122317 36 358 1.6 4.8 0.00 0.05 0.00 13 1017.9
20260905121817 36 0 3.2 9.7 0.00 0.05 0.00 12 1017.9
20260905121317 36 0 4.8 8.0 0.00 0.05 0.00 12 1018.0
20260905120817 30 228 4.8 9.7 0.00 0.05 0.00 13 1019.5
20260905115817 30 225 4.8 8.0 0.00 0.05 0.00 43 1019.7
20260905115317 30 230 4.8 8.0 0.00 0.05 0.00 12 1019.5
20260905114818 36 351 1.6 4.8 0.00 0.05 0.00 24 1018.3
20260905113817 36 283 3.2 4.8 0.00 0.05 0.00 11 1018.3
20260905113317 36 223 1.6 3.2 0.00 0.05 0.00 20 1018.3
20260905112817 35 180 1.6 4.8 0.00 0.05 0.00 21 1018.3
20260905112318 35 227 3.2 4.8 0.00 0.05 0.00 20 1018.4
20260905111817 35 186 1.6 4.8 0.00 0.05 0.00 21 1019.6
20260905111317 35 331 1.6 4.8 0.00 0.05 0.00 21 1018.4
20260905105817 34 357 4.8 9.7 0.00 0.05 0.00 22 1018.5
20260905105318 34 234 3.2 8.0 0.00 0.05 0.00 23 1018.5
20260905104817 33 356 3.2 8.0 0.00 0.05 0.00 23 1018.6
20260905104317 33 315 4.8 9.7 0.00 0.05 0.00 23 1018.6
20260905103317 34 319 1.6 9.7 0.00 0.05 0.00 25 1018.6
20260905102818 33 90 4.8 9.7 0.00 0.05 0.00 25 1018.6
20260905102320 34 357 6.4 9.7 0.00 0.05 0.00 24 1018.7
20260905100817 33 135 1.6 1.6 0.00 0.05 0.00 28 1018.9
20260905100317 33 135 1.6 4.8 0.00 0.05 0.00 28 1018.9
20260905093817 32 359 3.2 8.0 0.00 0.05 0.00 26 1019.2
20260905093317 32 296 4.8 8.0 0.00 0.05 0.00 30 1019.3
20260905092818 32 5 1.6 4.8 0.00 0.05 0.00 32 1019.3
20260905092318 32 180 1.6 3.2 0.00 0.05 0.00 33 1019.4
20260905091818 31 107 1.6 4.8 0.00 0.05 0.00 35 1019.9
20260905091318 27 228 3.2 4.8 0.00 0.05 0.00 47 1019.4
20260905090817 31 270 1.6 1.6 0.00 0.05 0.00 34 1019.5
20260905090317 31 270 1.6 3.2 0.00 0.05 0.00 34 1019.5
20260905085817 31 0 1.6 3.2 0.00 0.05 0.00 33 1019.6
20260905085317 31 92 1.6 3.2 0.00 0.05 0.00 40 1019.6
20260905084817 31 315 1.6 4.8 0.00 0.05 0.00 40 1019.7
20260905083817 30 225 1.6 4.8 0.00 0.05 0.00 40 1019.8
20260905083317 30 191 3.2 8.0 0.00 0.05 0.00 40 1019.8
20260905082818 30 264 1.6 4.8 0.00 0.05 0.00 41 1019.9
20260905082317 30 225 3.2 8.0 0.00 0.05 0.00 42 1019.8
20260905081817 30 225 3.2 8.0 0.00 0.05 0.00 43 1019.7
20260905081317 30 225 4.8 8.0 0.00 0.05 0.00 44 1019.7
20260905080817 30 270 3.2 4.8 0.00 0.05 0.00 45 1019.7
20260905080317 28 225 0.0 3.2 0.00 0.05 0.00 45 1019.7
20260905075817 28 189 1.6 4.8 0.00 0.05 0.00 45 1019.7
20260905075317 28 225 3.2 4.8 0.00 0.05 0.00 44 1019.6
20260905074817 28 184 1.6 1.6 0.00 0.05 0.00 45 1019.7
20260905074317 27 315 1.6 4.8 0.00 0.05 0.00 45 1019.7
20260905073817 27 185 1.6 4.8 0.00 0.05 0.00 46 1019.8